This demonstration page uses our WeatherBlox Daily Observations layout. Learn more.

Left ArrowRight Arrow

Hourly Observations for February 27, 2021

Temp ( °F °C ) Dew Point ( °F °C ) Humidity (%) Winds ( mph kmh ) Pressure ( in mb ) Visibility ( mi km ) Precip ( " mm )
12:54 am 00:54 Clear 33 0.6 23 -5 66 66 SSW 3 6 29.85 1011 10 16.0934 0 0
1:54 am 01:54 Clear 30 -1.1 22 -5.6 72 72 Calm 29.86 1011 10 16.0934 0 0
2:54 am 02:54 Clear 32 0 22 -5.6 66 66 W 5 7 29.87 1012 10 16.0934 0 0
3:54 am 03:54 Clear 30 -1.1 22 -5.6 72 72 S 6 9 29.86 1011 10 16.0934 0 0
4:54 am 04:54 Clear 27 -2.8 21 -6.1 78 78 S 7 11 29.88 1012 10 16.0934 0 0
5:54 am 05:54 Clear 26 -3.3 20 -6.7 78 78 S 6 9 29.9 1013 10 16.0934 0 0
6:54 am 06:54 Clear 23 -5 19 -7.2 85 85 SSE 5 7 29.93 1014 10 16.0934 0 0
7:54 am 07:54 Sunny 29 -1.7 23 -5 78 78 S 3 6 29.93 1014 10 16.0934 0 0
8:54 am 08:54 Sunny 35 1.7 26 -3.3 70 70 Calm 29.94 1014 10 16.0934 0 0
9:54 am 09:54 Sunny 40 4.4 30 -1.1 68 68 Calm 29.91 1013 10 16.0934 0 0
10:54 am 10:54 Sunny 48 8.9 34 1.1 58 58 Calm 29.9 1013 10 16.0934 0 0
11:54 am 11:54 Sunny 51 10.6 38 3.3 61 61 E 9 15 29.86 1011 10 16.0934 0 0
12:54 pm 12:54 Sunny 53 11.7 39 3.9 59 59 ESE 18 30 29.81 1010 10 16.0934 0 0
1:54 pm 13:54 Sunny 52 11.1 41 5 66 66 ESE 20 31 29.75 1007 10 16.0934 0 0
2:54 pm 14:54 Mostly Cloudy 55 12.8 41 5 59 59 SE 18 30 29.72 1006 10 16.0934 0 0
3:54 pm 15:54 Mostly Cloudy 56 13.3 40 4.4 55 55 SE 23 37 29.68 1005 10 16.0934 0 0
4:54 pm 16:54 Sunny 56 13.3 41 5 57 57 SE 13 20 29.67 1005 10 16.0934 0 0
5:54 pm 17:54 Sunny 54 12.2 40 4.4 59 59 SE 13 20 29.66 1004 10 16.0934 0 0
6:54 pm 18:54 Cloudy 49 9.4 39 3.9 69 69 N 6 9 29.7 1006 10 16.0934 0 0
7:54 pm 19:54 Cloudy 47 8.3 39 3.9 74 74 ENE 9 15 29.71 1006 10 16.0934 0 0
8:01 pm 20:01 Mostly Cloudy with Nearby Thunderstorms 47 8.3 39 3.9 74 74 ENE 9 15 29.71 1006 10 16.0934 0 0
8:16 pm 20:16 Cloudy with Light Rain 47 8.3 40 4.4 77 77 NW 5 7 29.72 1006 9 14.48406 0.001 0.001
8:29 pm 20:29 Cloudy with Light Thunderstorms 45 7.2 40 4.4 83 83 NE 8 13 29.71 1006 6 9.65604 0.01 0.254
8:44 pm 20:44 Cloudy with Light Rain 47 8.3 41 5 80 80 E 7 11 29.7 1006 9 14.48406 0.02 0.508
8:54 pm 20:54 Cloudy with Light Rain 47 8.3 41 5 80 80 Calm 29.7 1006 10 16.0934 0.03 0.762
9:09 pm 21:09 Cloudy with Light Thunderstorms 46 7.8 42 5.6 86 86 Calm 29.71 1006 9 14.48406 0.001 0.001
9:30 pm 21:30 Cloudy with Nearby Thunderstorms 45 7.2 42 5.6 90 90 NW 3 6 29.71 1006 5 8.0467 0.02 0.508
9:49 pm 21:49 Cloudy with Light Rain 46 8 41 5 82 82 Calm 29.72 1006 10 16.0934 0.03 0.762
9:54 pm 21:54 Cloudy with Light Rain 45 7.2 42 5.6 90 90 NW 3 6 29.72 1006 10 16.0934 0.03 0.762
10:54 pm 22:54 Cloudy 42 5.6 39 3.9 89 89 Calm 29.73 1007 7 11.26538 0.001 0.001
11:54 pm 23:54 Clear 43 6.1 37 2.8 80 80 NW 13 20 29.75 1007 10 16.0934 0 0

Powered by AerisWeather